Troy, AL

1:59 AM CDT on June 28, 2017 (GMT -0500)
Troy Municipal

Weather History for KTOI - March, 2014

Change the Weather History Date:

Saturday, March 8, 2014

  Actual Average Record
Temperature  
Mean Temperature 52 °F 55 °F  
Max Temperature 70 °F 68 °F 79 °F (2012)
Min Temperature 34 °F 42 °F 29 °F (2013)
Degree Days  
Heating Degree Days 13 11  
Month to date heating degree days 112 92  
Since 1 July heating degree days 2052 2011  
Cooling Degree Days 0 0  
Month to date cooling degree days 0 0  
Year to date cooling degree days 11 5  
Growing Degree Days 2 (Base 50)    
Moisture  
Dew Point 41 °F    
Average Humidity 67    
Maximum Humidity 96    
Minimum Humidity 37    
Precipitation  
Precipitation 0.00 in 0.18 in 0.05 in (2005)
Month to date precipitation 0.40 1.33  
Year to date precipitation 9.46 10.46  
Snow  
Snow 0.00 in - - ()
Month to date snowfall 0.0  
Since 1 July snowfall 0.3  
Snow Depth 0.00 in    
Sea Level Pressure  
Sea Level Pressure 30.15 in    
Wind  
Wind Speed 3 mph (SW)    
Max Wind Speed 13 mph    
Max Gust Speed 16 mph    
Visibility 10 miles    
Events      
T = Trace of Precipitation, MM = Missing Value Source: NWS Daily Summary

Daily Weather History Graph

Daily Weather History Graph

Search for Another Location

Airport or City:

Trip Planner

Search our weather history database for the weather conditions in past years. The results will help you decide how hot, cold, wet, or windy it might be!

Date:

Astronomy

Mar. 08, 2014 Rise Set
Actual Time 6:02 AM CST 5:47 PM CST
Civil Twilight 5:38 AM CST 6:11 PM CST
Nautical Twilight 5:10 AM CST 6:39 PM CST
Astronomical Twilight 4:41 AM CST 7:08 PM CST
Moon 11:05 AM CST (3/8) 12:22 AM CST (3/8)
Length of Visible Light 12h 33m
Length of Day
11h 44m
First Quarter, 52% of the Moon is Illuminated
Mar 8
First Quarter
Mar 16
Full
Mar 23
Last Quarter
Mar 30
New
Apr 7
First Quarter

Hourly Weather History & Observations

Time (CST) Temp. Dew Point Humidity Pressure Visibility Wind Dir Wind Speed Gust Speed Precip Events Conditions
12:53 AM 37.9 °F 36.0 °F 93% 30.09 in 8.0 mi Calm Calm - N/A   Clear
1:53 AM 37.9 °F 36.0 °F 93% 30.07 in 10.0 mi Calm Calm - N/A   Clear
2:53 AM 36.0 °F 34.0 °F 93% 30.08 in 10.0 mi Calm Calm - N/A   Clear
3:53 AM 37.0 °F 35.1 °F 93% 30.09 in 10.0 mi Calm Calm - N/A   Clear
4:53 AM 36.0 °F 33.1 °F 89% 30.11 in 10.0 mi Calm Calm - N/A   Clear
5:53 AM 34.0 °F 32.0 °F 92% 30.15 in 10.0 mi Calm Calm - N/A   Clear
6:01 AM 34.0 °F 32.0 °F 92% 30.15 in 10.0 mi Calm Calm - N/A   Scattered Clouds
6:53 AM 37.0 °F 35.1 °F 93% 30.17 in 10.0 mi Calm Calm - N/A   Clear
7:53 AM 46.9 °F 43.0 °F 86% 30.19 in 10.0 mi Calm Calm - N/A   Clear
8:53 AM 54.0 °F 45.0 °F 72% 30.20 in 10.0 mi Variable 3.5 mph - N/A   Clear
9:53 AM 60.1 °F 45.0 °F 57% 30.21 in 10.0 mi Variable 4.6 mph - N/A   Clear
10:53 AM 63.0 °F 44.1 °F 50% 30.20 in 10.0 mi South 9.2 mph - N/A   Partly Cloudy
11:53 AM 64.9 °F 44.1 °F 47% 30.18 in 10.0 mi Variable 5.8 mph - N/A   Partly Cloudy
12:53 PM 68.0 °F 44.1 °F 42% 30.15 in 10.0 mi SW 9.2 mph - N/A   Clear
1:53 PM 69.1 °F 44.1 °F 40% 30.13 in 10.0 mi West 6.9 mph - N/A   Clear
2:53 PM 69.1 °F 44.1 °F 40% 30.12 in 10.0 mi SSW 5.8 mph - N/A   Partly Cloudy
3:53 PM 69.1 °F 43.0 °F 39% 30.11 in 10.0 mi SW 9.2 mph - N/A   Clear
4:53 PM 68.0 °F 44.1 °F 42% 30.11 in 10.0 mi WSW 6.9 mph - N/A   Clear
5:53 PM 64.0 °F 46.0 °F 52% 30.12 in 10.0 mi WSW 4.6 mph - N/A   Clear
6:53 PM 57.9 °F 46.0 °F 65% 30.14 in 10.0 mi WSW 3.5 mph - N/A   Clear
7:53 PM 55.0 °F 46.0 °F 72% 30.16 in 10.0 mi Calm Calm - N/A   Clear
8:53 PM 51.1 °F 46.0 °F 83% 30.17 in 10.0 mi Calm Calm - N/A   Clear
9:53 PM 51.1 °F 45.0 °F 80% 30.18 in 10.0 mi Calm Calm - N/A   Clear
10:53 PM 51.1 °F 46.0 °F 83% 30.19 in 10.0 mi Calm Calm - N/A   Clear
11:53 PM 48.0 °F 45.0 °F 89% 30.18 in 10.0 mi SSW 3.5 mph - N/A   Clear